GRAVITY-1 R/B, 66205

Orbit data source: Space-Track

GRAVITY-1 R/B, 66205 is space debris in SSO originally from a launch on Sat, 11 Oct 2025 UTC launched from the Yellow Sea Launch Area, China (YSLA). Debris objects in space refer to the collection of defunct objects orbiting the Earth. Examples of debris include non-operational satellites, rocket bodies, and fragments generated from explosions, collisions, or faulty payload assembly.

Loading next visibility...
Identifier
66205, 2025-226E
Orbit
SSO
Country
Flag of CNCN / PRC
Related business
Manufacturer
CALT
Mission
Spacecraft
Bus & Motor
Unknown
Mass
1,000 kg wet, 1,000 kg dry
Launch date (UTC)
2025-10-11 (2 months ago)
Launch vehicle
Unknown
Launch site
Yellow Sea Launch Area, China (YSLA)
Object type
Payload
Rocket body
Debris
Shape & HBR
Unknown shape, 8.0 m
Radar Cross Section
RCS unknown

Expand to show TLE details & history
Last TLE update: 12 hours ago

TLE from 12 hours ago
0 GRAVITY-1 R/B
1 66205U 25226E   25340.79540106  .00072762  36933-5  58077-3 0  9995
2 66205  97.7889  60.0430 0152115 192.3989 167.3507 15.57390819  6551
Epoch: 2025-12-06T19:05Z
TLE epoch observation values (Epoch: 2025-12-06T19:05:22.651Z)
Latitude
-0.00006°
Longitude
57.88062°
Altitude
498.97 km
Speed
7.558 km/s
True Right ascension
04h 00m 10s
True Declination
0° 00' 00"
Sunlit
Object was in full shadow at epoch
Visualization orbit readout
Latitude
Unknown
Longitude
Unknown
Altitude
Unknown
Speed
Unknown
Apparent Right ascension
Unknown
Apparent Declination
Unknown
Sunlit
N/A
Visualization observer readout
Local Sidereal Time
05:34:14
Azimuth
Unknown
Elevation
Unknown
Doppler factor
Unknown
Orbital elements
Apogee altitude
495.13 km
Perigee altitude
289.158 km
Semi-major axis
6,770.281 km
Eccentricity
0.01521
Inclination
97.7889°
RAAN
60.043°
Arg. of periapsis
192.3989°
True anomaly
167.72545°
Mean anomaly
167.3507°
Eccentric anomaly
167.53876°
Mean motion
3.89613 °/min
Orbital period
92.4 mins
BSTAR
0.00058077
Loading maneuver chart data...
Computing Atmospheric mass density...
Loading historical data...
Loading historical data...
Loading historical data...
Loading historical data...
Loading historical data...
Loading historical data...
Loading historical data...
Other satellites on launch #226 in the year 2025 (2025-10-11 UTC)

Documentation

Showing up to 5 results
|